timestamp,wind_dir_avg,wind_spd_avg,wind_spd_max_dir,wind_spd_gust,battery_voltage,lat,long
2024-01-26 11:14:00+00:00,324.0,6.73,326.0,7.57,11.7,47.59359,-54.27349
2024-01-26 11:24:00+00:00,324.0,6.08,329.0,7.68,11.7,47.59359,-54.27349
2024-01-26 11:34:00+00:00,329.0,5.16,326.0,5.86,11.7,47.59359,-54.27349
2024-01-26 11:44:00+00:00,325.0,4.81,337.0,6.04,11.7,47.59359,-54.27349
2024-01-26 11:54:00+00:00,339.0,5.32,340.0,6.02,11.7,47.59359,-54.27349
2024-01-26 12:04:00+00:00,329.0,5.18,329.0,6.22,11.7,47.59359,-54.27349
2024-01-26 12:14:00+00:00,320.0,4.86,323.0,5.67,14.16,47.59359,-54.27349
2024-01-26 12:24:00+00:00,320.0,3.85,319.0,4.42,14.16,47.59359,-54.27349
2024-01-26 12:34:00+00:00,314.0,3.36,321.0,4.46,14.16,47.59359,-54.27349
2024-01-26 12:44:00+00:00,310.0,1.95,319.0,3.16,14.16,47.59359,-54.27349
2024-01-26 12:54:00+00:00,311.0,3.22,314.0,4.4,14.16,47.59359,-54.27349
2024-01-26 13:04:00+00:00,313.0,4.47,310.0,5.13,14.16,47.59359,-54.27349
2024-01-26 13:14:00+00:00,325.0,5.56,326.0,6.35,14.48,47.59359,-54.27349
2024-01-26 13:24:00+00:00,314.0,4.84,321.0,5.69,14.48,47.59359,-54.27349
2024-01-26 13:34:00+00:00,320.0,4.38,319.0,5.42,14.48,47.59359,-54.27349
2024-01-26 13:44:00+00:00,320.0,3.93,327.0,4.78,14.48,47.59359,-54.27349
2024-01-26 13:54:00+00:00,322.0,5.1,325.0,5.83,14.48,47.59359,-54.27349
2024-01-26 14:04:00+00:00,321.0,5.3,327.0,6.2,14.48,47.59359,-54.27349
2024-01-26 14:14:00+00:00,328.0,5.43,326.0,6.54,13.68,47.59359,-54.27349
2024-01-26 14:24:00+00:00,321.0,4.6,325.0,5.68,13.68,47.59359,-54.27349
2024-01-26 14:34:00+00:00,313.0,4.21,318.0,4.73,13.68,47.59359,-54.27349
2024-01-26 14:44:00+00:00,315.0,4.08,319.0,5.08,13.68,47.59359,-54.27349
2024-01-26 14:54:00+00:00,325.0,3.37,318.0,4.19,13.68,47.59359,-54.27349
2024-01-26 15:04:00+00:00,313.0,3.5,319.0,4.25,13.68,47.59359,-54.27349
2024-01-26 15:14:00+00:00,275.0,3.3,287.0,4.33,13.92,47.59359,-54.27349
2024-01-26 15:24:00+00:00,291.0,3.51,282.0,4.49,13.92,47.59359,-54.27349
2024-01-26 15:34:00+00:00,302.0,3.51,312.0,4.29,13.92,47.59359,-54.27349
2024-01-26 15:44:00+00:00,280.0,4.6,281.0,5.25,13.92,47.59359,-54.27349
2024-01-26 15:54:00+00:00,295.0,4.39,309.0,5.0,13.92,47.59359,-54.27349
2024-01-26 16:04:00+00:00,294.0,4.28,299.0,4.56,13.92,47.59359,-54.27349
2024-01-26 16:14:01+00:00,260.0,4.41,278.0,7.6,13.92,47.59359,-54.27349
2024-01-26 16:24:01+00:00,268.0,4.02,260.0,4.37,13.92,47.59359,-54.27349
2024-01-26 16:34:01+00:00,265.0,3.49,268.0,4.21,13.92,47.59359,-54.27349
2024-01-26 16:44:01+00:00,275.0,3.34,259.0,4.26,13.92,47.59359,-54.27349
2024-01-26 16:54:01+00:00,246.0,4.22,262.0,7.66,13.92,47.59359,-54.27349
2024-01-26 17:04:01+00:00,189.0,1.52,253.0,3.51,13.92,47.59359,-54.27349
2024-01-26 17:14:00+00:00,264.0,3.59,260.0,4.44,13.92,47.59359,-54.27349
2024-01-26 17:24:00+00:00,240.0,4.29,234.0,5.41,13.92,47.59359,-54.27349
2024-01-26 17:34:00+00:00,266.0,5.84,267.0,8.52,13.92,47.59359,-54.27349
2024-01-26 17:44:00+00:00,263.0,4.28,262.0,4.92,13.92,47.59359,-54.27349
2024-01-26 17:54:00+00:00,265.0,3.83,270.0,5.23,13.92,47.59359,-54.27349
2024-01-26 18:04:00+00:00,237.0,4.24,236.0,5.48,13.92,47.59359,-54.27349
2024-01-26 18:14:00+00:00,227.0,5.39,231.0,6.52,14.4,47.59359,-54.27349
2024-01-26 18:24:00+00:00,223.0,4.91,230.0,6.37,14.4,47.59359,-54.27349
2024-01-26 18:34:00+00:00,222.0,4.89,234.0,5.89,14.4,47.59359,-54.27349
2024-01-26 18:44:00+00:00,248.0,6.43,246.0,7.16,14.4,47.59359,-54.27349
2024-01-26 18:54:00+00:00,251.0,5.68,257.0,6.39,14.4,47.59359,-54.27349
2024-01-26 19:04:00+00:00,257.0,5.41,252.0,6.46,14.4,47.59359,-54.27349
2024-01-26 19:14:00+00:00,243.0,5.12,236.0,6.4,13.37,47.59359,-54.27349
2024-01-26 19:24:00+00:00,254.0,4.92,255.0,6.61,13.37,47.59359,-54.27349
2024-01-26 19:34:00+00:00,252.0,6.09,255.0,7.93,13.37,47.59359,-54.27349
2024-01-26 19:44:00+00:00,253.0,5.96,255.0,7.93,13.37,47.59359,-54.27349
2024-01-26 19:54:00+00:00,254.0,6.36,259.0,7.67,13.37,47.59359,-54.27349
2024-01-26 20:04:00+00:00,224.0,4.54,238.0,7.3,13.37,47.59359,-54.27349
2024-01-26 20:14:00+00:00,260.0,5.67,265.0,8.09,12.81,47.59359,-54.27349
2024-01-26 20:24:00+00:00,243.0,8.06,246.0,8.7,12.81,47.59359,-54.27349
2024-01-26 20:34:00+00:00,251.0,8.16,256.0,9.12,12.81,47.59359,-54.27349
2024-01-26 20:44:00+00:00,264.0,7.84,264.0,9.0,12.81,47.59359,-54.27349
2024-01-26 20:54:00+00:00,241.0,8.52,236.0,9.51,12.81,47.59359,-54.27349
2024-01-26 21:04:00+00:00,241.0,7.79,238.0,9.9,12.81,47.59359,-54.27349
2024-01-26 21:14:00+00:00,237.0,8.97,238.0,10.3,12.41,47.59359,-54.27349
2024-01-26 21:24:00+00:00,238.0,8.48,238.0,9.66,12.41,47.59359,-54.27349
2024-01-26 21:34:00+00:00,245.0,6.8,245.0,8.3,12.41,47.59359,-54.27349
2024-01-26 21:44:00+00:00,240.0,8.13,243.0,9.27,12.41,47.59359,-54.27349
2024-01-26 21:54:00+00:00,239.0,6.26,237.0,8.36,12.41,47.59359,-54.27349
2024-01-26 22:04:00+00:00,249.0,5.99,251.0,7.95,12.41,47.59359,-54.27349
2024-01-26 22:14:00+00:00,251.0,4.82,254.0,7.27,12.33,47.59359,-54.27349
2024-01-26 22:24:00+00:00,262.0,6.61,263.0,7.76,12.33,47.59359,-54.27349
2024-01-26 22:34:00+00:00,260.0,7.18,261.0,7.92,12.33,47.59359,-54.27349
2024-01-26 22:44:00+00:00,248.0,4.3,260.0,7.96,12.33,47.59359,-54.27349
2024-01-26 22:54:00+00:00,249.0,7.62,245.0,8.87,12.33,47.59359,-54.27349
2024-01-26 23:04:00+00:00,253.0,5.11,248.0,7.86,12.33,47.59359,-54.27349
2024-01-26 23:14:00+00:00,247.0,4.19,254.0,7.7,12.25,47.59359,-54.27349
2024-01-26 23:24:00+00:00,257.0,5.39,260.0,7.55,12.25,47.59359,-54.27349
2024-01-26 23:34:00+00:00,258.0,4.97,258.0,7.78,12.25,47.59359,-54.27349
2024-01-26 23:44:00+00:00,249.0,3.66,251.0,7.38,12.25,47.59359,-54.27349
2024-01-26 23:54:00+00:00,243.0,4.19,248.0,7.27,12.25,47.59359,-54.27349
